[[{"header":{"parameterUnit":"m.s-1","parameterCategory":1,"la1":30.2991,"la2":30.254,"lo1":-89.0895,"lo2":-89.0444,"dy":0.0017,"dx":0.0017,"nx":28,"ny":28,"refTime":"2025-07-16T09:00:00:Z","depth":0,"parameterNumber":2,"parameterNumberName":"U-component_of_WINDS"},"data":[0,0,0,0,0,0,0,0,0,0,0,0,0,0,0,0,0,0,0,0,0,0,0,0,0,0,0,0,0,0,0,0,0,0,0,0,0,0,0,0,0,0,0,0,0,0,0,0,0,0,0,0,0,0,0,0,0,0,-4.1522,-4.1521,0,-4.144,-4.1439,-4.1438,-4.1348,-4.1346,-4.1345,-4.1344,-4.1259,-4.1258,-4.1257,0,0,0,0,0,0,0,0,0,0,0,0,0,-4.1602,-4.1601,-4.1522,-4.1521,-4.152,-4.144,-4.1439,-4.1438,-4.1348,-4.1346,-4.1345,-4.1343,-4.1259,-4.1258,-4.1257,0,0,0,0,0,0,0,0,0,0,0,0,0,-4.1548,-4.1601,-4.1523,-4.1466,-4.146,-4.144,-4.1439,-4.1437,-4.1348,-4.1346,-4.1344,-4.1342,-4.126,-4.1258,-4.1257,-4.1286,0,0,-4.1252,-4.1251,0,0,0,0,0,0,0,0,-4.1551,-4.1545,-4.1475,-4.147,-4.1463,-4.1402,-4.1436,-4.1387,-4.1349,-4.1391,-4.1344,-4.1341,-4.1308,-4.1303,-4.1291,-4.1282,-4.1279,-4.1252,-4.1251,-4.125,-4.125,0,0,0,0,0,0,0,-4.1555,-4.1548,-4.149,-4.1474,-4.1467,-4.1444,-4.1435,-4.1426,-4.1361,-4.1387,-4.138,-4.1372,-4.1304,-4.1293,-4.1289,-4.1277,-4.1252,-4.1251,-4.125,-4.1249,-4.1287,-4.1289,0,0,0,0,0,0,-4.1568,-4.1552,-4.1492,-4.1487,-4.1503,-4.1445,-4.1434,-4.1424,-4.1361,-4.135,-4.1373,-4.1368,-4.1297,-4.1291,-4.1285,-4.1314,-4.125,-4.1249,-4.1248,-4.1285,-4.1288,-4.129,0,0,0,0,0,0,-4.157,-4.1563,-4.1496,-4.1518,-4.1507,-4.1445,-4.1435,-4.1423,-4.1411,-4.1351,-4.1339,-4.1373,-4.1295,-4.1288,-4.1286,-4.131,-4.1248,-4.1247,-4.1283,-4.1286,-4.1289,-4.1373,0,0,0,0,0,0,-4.1572,-4.1564,-4.1575,-4.1519,-4.1507,-4.1498,-4.1436,-4.1423,-4.1409,-4.1401,-4.1348,-4.1337,-4.1293,-4.1289,-4.1285,-4.1306,-4.1245,-4.128,-4.1284,-4.1288,-4.1367,-4.1378,-4.1387,0,0,0,0,0,-4.1575,-4.1602,-4.1576,-4.1569,-4.1518,-4.15,-4.1493,-4.1441,-4.1411,-4.1421,-4.1382,-4.1339,-4.1309,-4.129,-4.1284,-4.1306,-4.1279,-4.1283,-4.1288,-4.1363,-4.1376,-4.1387,0,0,0,0,0,0,-4.1662,-4.1594,-4.1564,-4.1573,-4.1543,-4.1485,-4.1495,-4.1457,-4.1434,-4.1427,-4.1365,-4.1353,-4.1359,-4.1333,-4.1313,-4.1331,-4.1288,-4.1291,-4.1347,-4.1359,-4.1369,-4.1373,-4.1244,0,0,0,0,0,-4.1683,-4.1673,-4.1614,-4.1628,-4.1614,-4.1558,-4.1548,-4.1511,-4.1477,-4.1463,-4.1425,-4.1393,-4.1377,-4.1367,-4.1348,-4.1365,-4.1351,-4.1377,-4.1387,-4.1395,-4.1398,-4.1403,-4.1413,-4.1304,-4.1304,-4.1304,0,0,-4.1724,-4.1686,-4.1683,-4.1644,-4.1616,-4.1607,-4.1547,-4.1541,-4.1533,-4.1462,-4.1458,-4.1429,-4.139,-4.1398,-4.1399,-4.1375,-4.1425,-4.1401,-4.1408,-4.1406,-4.1408,-4.1419,-4.1428,-4.1307,-4.1307,-4.1306,0,0,-4.1794,-4.1765,-4.1773,-4.1746,-4.1705,-4.1668,-4.167,-4.1618,-4.1595,-4.159,-4.1537,-4.1527,-4.15,-4.1474,-4.1458,-4.152,-4.1478,-4.1516,-4.1566,-4.1572,-4.158,-4.1587,-4.1607,-4.1615,-4.1519,-4.152,-4.152,0,-4.1851,-4.1835,-4.1781,-4.1778,-4.1762,-4.1698,-4.1704,-4.1682,-4.1637,-4.1627,-4.1602,-4.1567,-4.1536,-4.1535,-4.1551,-4.154,-4.154,-4.152,-4.1584,-4.159,-4.1596,-4.1614,-4.1622,-4.1524,-4.1524,-4.1523,-4.1523,0,-4.1906,-4.1896,-4.1907,-4.1865,-4.1851,-4.1853,-4.1799,-4.1791,-4.1756,-4.1721,-4.1716,-4.1678,-4.165,-4.1648,-4.1614,-4.1642,-4.1629,-4.1595,-4.155,-4.1612,-4.1628,-4.1635,-4.1531,-4.1529,-4.1528,-4.1527,0,0,-4.2026,-4.1955,-4.1959,-4.1939,-4.189,-4.1881,-4.188,-4.1853,-4.1846,-4.1819,-4.1815,-4.1794,-4.1762,-4.1744,-4.1706,-4.1712,-4.1761,-4.1677,-4.1675,-4.1691,-4.1788,-4.1812,-4.1821,-4.1735,-4.1736,-4.1737,-4.179,0,-4.2085,-4.2079,-4.2031,-4.2038,-4.2027,-4.1968,-4.1967,-4.1936,-4.1904,-4.1891,-4.1856,-4.1841,-4.1801,-4.1789,-4.1792,-4.1754,-4.1779,-4.175,-4.1729,-4.1729,-4.1737,-4.1829,-4.1854,-4.1906,-4.1796,-4.1797,-4.1798,0,-4.2153,-4.2129,-4.2135,-4.2085,-4.2079,-4.2079,-4.2049,-4.2038,-4.2002,-4.1978,-4.1958,-4.1916,-4.1912,-4.1872,-4.1864,-4.1845,-4.1835,-4.1815,-4.1816,-4.1809,-4.1765,-4.1822,-4.1922,-4.1929,-4.1808,-4.1807,-4.1806,0,-4.2237,-4.2206,-4.2205,-4.219,-4.2133,-4.2134,-4.211,-4.2072,-4.2059,-4.2034,-4.2024,-4.2,-4.1985,-4.1967,-4.1919,-4.1895,-4.1916,-4.1873,-4.1895,-4.1896,-4.1899,-4.1899,-4.1995,-4.1898,-4.1898,-4.1898,-4.1897,0,-4.2306,-4.2312,-4.2242,-4.2241,-4.2245,-4.2191,-4.2197,-4.2167,-4.2135,-4.2127,-4.2075,-4.2069,-4.2008,-4.1995,-4.1958,-4.1956,-4.1951,-4.193,-4.192,-4.1933,-4.1935,-4.1923,-4.1917,-4.19,-4.1899,-4.1899,-4.1898,0,-4.2399,-4.2353,-4.2347,-4.2294,-4.2281,-4.2286,-4.224,-4.2237,-4.2202,-4.2193,-4.2188,-4.2134,-4.2116,-4.2067,-4.2037,-4.2012,-4.2019,-4.2002,-4.2031,-4.2024,-4.2047,-4.2045,-4.2137,-4.2145,-4.2045,-4.2046,-4.2047,0,-4.2445,-4.2448,-4.2394,-4.2385,-4.2364,-4.235,-4.2336,-4.2283,-4.227,-4.223,-4.2232,-4.221,-4.2189,-4.2163,-4.2121,-4.2097,-4.2077,-4.2111,-4.2073,-4.2086,-4.2074,-4.2073,-4.2072,-4.2118,-4.212,-4.2121,-4.2122,0,-4.2531,-4.2508,-4.2489,-4.2463,-4.2448,-4.2424,-4.2398,-4.2394,-4.2335,-4.2323,-4.2304,-4.2288,-4.2257,-4.2235,-4.2205,-4.218,-4.214,-4.2135,-4.2138,-4.215,-4.2165,-4.2154,-4.205,-4.2132,-4.2131,-4.213,-4.2129,-4.2129,-4.2599,-4.2599,-4.2561,-4.2542,-4.2517,-4.2494,-4.2487,-4.2453,-4.2436,-4.2406,-4.2376,-4.236,-4.2324,-4.2279,-4.2258,-4.2244,-4.2223,-4.2229,-4.223,-4.2231,-4.2236,-4.217,-4.2239,-4.2238,-4.2238,-4.2238,-4.2237,0,-4.268,-4.2653,-4.2636,-4.2601,-4.2586,-4.2552,-4.2521,-4.2511,-4.2497,-4.2467,-4.2448,-4.2425,-4.2404,-4.2361,-4.2336,-4.2333,-4.2314,-4.2328,-4.2326,-4.232,-4.2257,-4.2255,-4.2343,-4.2343,-4.2343,-4.2343,-4.2343,-4.2343,-4.272,-4.2716,-4.2689,-4.2672,-4.2645,-4.2628,-4.2613,-4.2591,-4.2567,-4.2544,-4.2526,-4.2498,-4.2463,-4.2435,-4.2414,-4.2401,-4.2393,-4.2412,-4.2394,-4.2335,-4.2325,-4.2315,-4.2313,-4.2412,-4.2412,-4.2458,-4.2458,-4.2459]},{"header":{"parameterUnit":"m.s-1","parameterCategory":1,"la1":30.2991,"la2":30.254,"lo1":-89.0895,"lo2":-89.0444,"dy":0.0017,"dx":0.0017,"nx":28,"ny":28,"refTime":"2025-07-16T09:00:00:Z","depth":0,"parameterNumber":3,"parameterNumberName":"V-component_of_WINDS"},"data":[0,0,0,0,0,0,0,0,0,0,0,0,0,0,0,0,0,0,0,0,0,0,0,0,0,0,0,0,0,0,0,0,0,0,0,0,0,0,0,0,0,0,0,0,0,0,0,0,0,0,0,0,0,0,0,0,0,0,5.2737,5.2739,0,5.2916,5.2918,5.292,5.2928,5.2926,5.2924,5.2922,5.3103,5.311,5.3117,0,0,0,0,0,0,0,0,0,0,0,0,0,5.2401,5.2407,5.2737,5.2739,5.2741,5.2916,5.2918,5.292,5.2929,5.2926,5.2924,5.2921,5.3101,5.3109,5.3117,0,0,0,0,0,0,0,0,0,0,0,0,0,5.256,5.2409,5.2736,5.2767,5.2771,5.2915,5.2918,5.2921,5.2929,5.2926,5.2923,5.292,5.3098,5.3108,5.3118,5.3244,0,0,5.3149,5.3154,0,0,0,0,0,0,0,0,5.2551,5.2572,5.276,5.2765,5.277,5.2897,5.2866,5.3029,5.293,5.2869,5.2922,5.2918,5.3037,5.3052,5.3092,5.3252,5.326,5.315,5.3156,5.3161,5.3164,0,0,0,0,0,0,0,5.254,5.2565,5.2808,5.2763,5.2769,5.2771,5.279,5.2897,5.2968,5.2874,5.2875,5.2896,5.3039,5.3083,5.3097,5.3263,5.315,5.3159,5.3165,5.3169,5.3536,5.354,0,0,0,0,0,0,5.2523,5.2556,5.2802,5.2813,5.2651,5.2779,5.2801,5.2859,5.2967,5.2981,5.2899,5.2896,5.3067,5.3085,5.3103,5.3258,5.3161,5.317,5.3176,5.3533,5.3537,5.3541,0,0,0,0,0,0,5.2516,5.2545,5.2795,5.2685,5.2717,5.2788,5.2854,5.2864,5.2908,5.2986,5.2999,5.293,5.3065,5.3089,5.3209,5.3264,5.3175,5.3184,5.3528,5.3534,5.3539,5.3567,0,0,0,0,0,0,5.2507,5.2543,5.2591,5.2686,5.2722,5.2898,5.2857,5.287,5.2925,5.2924,5.3019,5.3031,5.3064,5.3194,5.3219,5.3276,5.3192,5.3524,5.3531,5.3537,5.3562,5.3573,5.3583,0,0,0,0,0,5.2495,5.2591,5.2594,5.2623,5.2785,5.2901,5.2922,5.2959,5.293,5.2979,5.303,5.3028,5.3254,5.3206,5.3235,5.3296,5.352,5.3529,5.3537,5.3557,5.3571,5.3582,0,0,0,0,0,0,5.25,5.2604,5.2608,5.2738,5.2811,5.2902,5.2965,5.2972,5.3053,5.3048,5.309,5.3111,5.3231,5.3275,5.322,5.3424,5.3384,5.3398,5.339,5.3403,5.3414,5.34,5.32,0,0,0,0,0,5.2516,5.2603,5.2689,5.2796,5.2832,5.2893,5.2945,5.2967,5.3044,5.3074,5.3133,5.3207,5.3295,5.3352,5.3437,5.3569,5.359,5.3625,5.3635,5.3644,5.3655,5.3729,5.3746,5.3568,5.3568,5.3568,0,0,5.2551,5.2619,5.267,5.2799,5.2857,5.2946,5.2918,5.3013,5.3078,5.3088,5.3206,5.3252,5.3338,5.3464,5.3523,5.3505,5.3709,5.3654,5.366,5.3667,5.3739,5.3756,5.3771,5.3573,5.3572,5.3572,0,0,5.2659,5.2719,5.2815,5.2875,5.2965,5.3005,5.3028,5.312,5.3151,5.327,5.328,5.3359,5.3509,5.357,5.362,5.3754,5.3756,5.378,5.3834,5.3906,5.392,5.3933,5.398,5.3997,5.3792,5.3792,5.3792,0,5.2689,5.2824,5.2863,5.2958,5.3014,5.3029,5.3126,5.3182,5.3295,5.3333,5.3312,5.3502,5.3561,5.3702,5.3735,5.3776,5.3804,5.3769,5.3915,5.3928,5.394,5.3986,5.4004,5.3794,5.3794,5.3794,5.3794,0,5.2857,5.295,5.3017,5.3127,5.3191,5.3286,5.334,5.34,5.3417,5.3459,5.3581,5.3652,5.3752,5.3788,5.3805,5.3933,5.3919,5.3906,5.3867,5.3959,5.4003,5.4021,5.3798,5.3797,5.3796,5.3796,0,0,5.2971,5.3103,5.3127,5.3178,5.328,5.3352,5.3449,5.3548,5.3598,5.3677,5.3759,5.3887,5.3876,5.3933,5.3958,5.4021,5.4123,5.4001,5.4003,5.402,5.4268,5.4276,5.4296,5.4126,5.4129,5.4132,5.4261,0,5.3089,5.3262,5.3301,5.345,5.3536,5.3553,5.3637,5.3708,5.3751,5.3831,5.3878,5.3968,5.3947,5.3982,5.4045,5.4097,5.4173,5.4088,5.4202,5.4205,5.4179,5.4319,5.4328,5.4446,5.4278,5.4281,5.4283,0,5.325,5.3333,5.3491,5.3583,5.362,5.3695,5.379,5.3866,5.3948,5.3975,5.404,5.4059,5.4161,5.4118,5.4258,5.42,5.4249,5.4282,5.4288,5.4298,5.4249,5.4333,5.4485,5.4502,5.4311,5.4308,5.4306,0,5.3317,5.3468,5.3582,5.3625,5.3735,5.3788,5.3836,5.3915,5.3973,5.4056,5.4093,5.4187,5.4238,5.431,5.4354,5.4318,5.4491,5.4452,5.4516,5.4515,5.455,5.4547,5.4711,5.4583,5.4583,5.4583,5.4582,0,5.3444,5.354,5.3614,5.3684,5.3792,5.3836,5.3942,5.399,5.406,5.414,5.416,5.4234,5.4288,5.437,5.4405,5.4517,5.4539,5.4564,5.4572,5.4562,5.4558,5.4593,5.4586,5.4587,5.4586,5.4585,5.4585,0,5.3536,5.359,5.3715,5.381,5.3836,5.3911,5.3992,5.4061,5.4105,5.4206,5.4232,5.4301,5.4399,5.445,5.4572,5.4596,5.4721,5.4724,5.4693,5.4696,5.4757,5.4751,5.4948,5.4977,5.4831,5.4832,5.4833,0,5.3613,5.3687,5.3791,5.3846,5.3896,5.3984,5.4044,5.4091,5.4152,5.4252,5.4309,5.4408,5.449,5.4645,5.4706,5.48,5.4806,5.4869,5.482,5.4808,5.4806,5.4801,5.4809,5.4877,5.4878,5.4879,5.488,0,5.3745,5.3768,5.3853,5.3949,5.4019,5.4096,5.4172,5.4216,5.4276,5.4344,5.4444,5.4508,5.4633,5.4732,5.4831,5.488,5.4891,5.4896,5.4915,5.4905,5.4884,5.4896,5.4716,5.489,5.4889,5.4888,5.4888,5.4887,5.3831,5.3898,5.3982,5.4077,5.4139,5.421,5.428,5.4334,5.4419,5.4525,5.4548,5.4654,5.4736,5.487,5.4923,5.5008,5.4995,5.5023,5.503,5.5036,5.5039,5.4871,5.5026,5.5026,5.5025,5.5025,5.5025,0,5.3964,5.4019,5.4106,5.4212,5.4287,5.4291,5.4376,5.4438,5.4532,5.4608,5.4688,5.4805,5.4901,5.4971,5.5069,5.5123,5.513,5.5147,5.5143,5.5154,5.5045,5.5018,5.5139,5.5139,5.5139,5.5139,5.5139,5.5139,5.4041,5.4155,5.4189,5.4334,5.4389,5.4494,5.4542,5.4608,5.4669,5.4798,5.4878,5.4923,5.4997,5.5101,5.519,5.5208,5.5243,5.5259,5.5278,5.5174,5.5162,5.515,5.5125,5.5267,5.5267,5.538,5.5381,5.5382]}]]